Weather History for Monticello, KY

Change the Weather History Date:

Monday, November 26, 2012

  Actual Average Record
Temperature  
Mean Temperature 42 °F -  
Max Temperature 56 °F 58 °F 71 °F (1985)
Min Temperature 27 °F 36 °F 16 °F (1991)
Degree Days  
Heating Degree Days 24    
Moisture  
Dew Point 32 °F    
Average Humidity 68    
Maximum Humidity 97    
Minimum Humidity 37    
Precipitation  
Precipitation 0.00 in - - ()
Sea Level Pressure  
Sea Level Pressure 30.18 in    
Wind  
Wind Speed 1 mph (NNE)    
Max Wind Speed 7 mph    
Max Gust Speed -    
Visibility 9 miles    
Events Rain    
Averages and records for this station are not official NWS values.
T = Trace of Precipitation, MM = Missing Value Source: NWS Daily Summary

Daily Weather History Graph

Daily Weather History Graph

Search for Another Location

Airport:

Trip Planner

Search our weather history database for the weather conditions in past years. The results will help you decide how hot, cold, wet, or windy it might be!

Date:

Astronomy

Nov. 26, 2012 Rise Set
Actual Time 6:29 AM CST 4:24 PM CST
Civil Twilight 6:01 AM CST 4:52 PM CST
Nautical Twilight 5:29 AM CST 5:24 PM CST
Astronomical Twilight 4:58 AM CST 5:55 PM CST
Moon 3:14 PM CST (11/26) 4:40 AM CST (11/26)
Length of Visible Light 10h 51m
Length of Day
9h 54m
Waxing Gibbous, 97% of the Moon is Illuminated
Nov 26
Waxing Gibbous
Nov 28
Full
Dec 6
Last Quarter
Dec 13
New
Dec 19
First Quarter

Hourly Weather History & Observations

Time (CST) Temp. Windchill Dew Point Humidity Pressure Visibility Wind Dir Wind Speed Gust Speed Precip Events Conditions
12:56 AM 29.1 °F - 23.0 °F 78% 30.15 in 10.0 mi Calm Calm - N/A   Clear
1:56 AM 27.1 °F - 23.0 °F 84% 30.17 in 10.0 mi Calm Calm - N/A   Clear
2:56 AM 28.0 °F - 25.2 °F 89% 30.17 in 10.0 mi Calm Calm - N/A   Mostly Cloudy
3:56 AM 32.0 °F - 28.0 °F 85% 30.17 in 10.0 mi Calm Calm - N/A   Overcast
4:56 AM 32.0 °F - 26.1 °F 79% 30.18 in 10.0 mi Calm Calm - N/A   Scattered Clouds
5:56 AM 32.9 °F - 29.1 °F 86% 30.20 in 10.0 mi Calm Calm - N/A   Mostly Cloudy
6:56 AM 37.9 °F - 29.1 °F 71% 30.20 in 10.0 mi Calm Calm - N/A   Overcast
7:56 AM 41.0 °F - 30.0 °F 65% 30.21 in 10.0 mi Calm Calm - N/A   Mostly Cloudy
8:56 AM 46.9 °F - 30.0 °F 52% 30.22 in 10.0 mi Calm Calm - N/A   Overcast
9:56 AM 50.9 °F - 28.0 °F 41% 30.21 in 10.0 mi Calm Calm - N/A   Overcast
10:56 AM 52.9 °F - 29.1 °F 40% 30.19 in 10.0 mi Calm Calm - N/A   Overcast
11:56 AM 54.9 °F - 29.1 °F 37% 30.17 in 10.0 mi Calm Calm - N/A   Overcast
12:56 PM 56.8 °F - 32.0 °F 39% 30.15 in 10.0 mi NNE 5.8 mph - N/A   Mostly Cloudy
1:56 PM 55.9 °F - 32.0 °F 40% 30.15 in 10.0 mi North 6.9 mph - N/A   Overcast
2:56 PM 54.0 °F - 32.0 °F 43% 30.15 in 10.0 mi North 4.6 mph - N/A   Overcast
3:56 PM 52.0 °F - 32.9 °F 48% 30.15 in 10.0 mi NNE 3.5 mph - N/A   Overcast
4:56 PM 50.9 °F - 32.9 °F 50% 30.15 in 10.0 mi NNE 4.6 mph - N/A   Overcast
5:56 PM 48.9 °F - 36.0 °F 61% 30.16 in 10.0 mi NNE 5.8 mph - 0.00 in Rain Light Rain
6:56 PM 45.9 °F 43.6 °F 37.9 °F 74% 30.17 in 10.0 mi NNE 4.6 mph - 0.00 in   Overcast
7:56 PM 45.9 °F 42.9 °F 37.9 °F 74% 30.20 in 10.0 mi North 5.8 mph - 0.00 in Rain Light Rain
8:56 PM 45.0 °F 43.5 °F 37.9 °F 76% 30.19 in 10.0 mi NNE 3.5 mph - 0.00 in   Overcast
9:56 PM 43.0 °F 40.3 °F 39.9 °F 89% 30.18 in 10.0 mi North 4.6 mph - 0.00 in   Mostly Cloudy
10:56 PM 41.9 °F 38.2 °F 39.9 °F 93% 30.19 in 7.0 mi NNE 5.8 mph - 0.00 in   Overcast
11:27 PM 42.8 °F - 41.0 °F 93% 30.17 in 6.0 mi Calm Calm - 0.00 in Rain Light Rain
11:42 PM 42.8 °F 40.1 °F 41.0 °F 93% 30.17 in 2.0 mi North 4.6 mph - 0.00 in Rain Light Rain
11:56 PM 41.9 °F - 41.0 °F 97% 30.19 in 4.0 mi Calm Calm - 0.00 in Rain Light Rain